Ketchikan, AK

9:03 PM AKDT on August 21, 2018 (GMT -0800)
Ketchikan International

Weather History for PAKT - February, 2018

Change the Weather History Date:

Friday, February 2, 2018

  Actual Average Record
Temperature  
Mean Temperature 40 °F -  
Max Temperature 52 °F 40 °F 52 °F (2018)
Min Temperature 28 °F 29 °F 4 °F (1968)
Degree Days  
Heating Degree Days 25    
Moisture  
Dew Point 30 °F    
Average Humidity 77    
Maximum Humidity 100    
Minimum Humidity 49    
Precipitation  
Precipitation 0.30 in - - ()
Sea Level Pressure  
Sea Level Pressure 29.81 in    
Wind  
Wind Speed 9 mph (West)    
Max Wind Speed 16 mph    
Max Gust Speed 24 mph    
Visibility 7 miles    
Events Rain    
Averages and records for this station are not official NWS values.
T = Trace of Precipitation, MM = Missing Value Source: NWS Daily Summary

Daily Weather History Graph

Daily Weather History Graph

Search for Another Location

Airport or City:

Astronomy

Feb. 02, 2018 Rise Set
Actual Time 7:36 AM AKST 4:25 PM AKST
Civil Twilight 6:56 AM AKST 5:05 PM AKST
Nautical Twilight 6:12 AM AKST 5:49 PM AKST
Astronomical Twilight 5:29 AM AKST 6:32 PM AKST
Moon 7:43 PM AKST (2/2) 8:48 AM AKST (2/2)
Length of Visible Light 10h 08m
Length of Day
8h 48m
Waning Gibbous, 93% of the Moon is Illuminated
Feb 2
Waning Gibbous
Feb 7
Last Quarter
Feb 15
New
Feb 22
First Quarter
Mar 1
Full

Hourly Weather History & Observations

Time (AKST) Temp. Windchill Dew Point Humidity Pressure Visibility Wind Dir Wind Speed Gust Speed Precip Events Conditions
12:53 AM 48.9 °F - 35.1 °F 59% 29.61 in 3.0 mi South 4.6 mph - 0.08 in Rain Light Rain
1:53 AM 48.9 °F - 35.1 °F 59% 29.59 in 7.0 mi South 8.1 mph - 0.05 in Rain Light Rain
2:53 AM 48.0 °F - 36.0 °F 63% 29.60 in 4.0 mi South 6.9 mph - 0.05 in Rain Rain
3:53 AM 50.0 °F - 36.0 °F 59% 29.59 in 3.0 mi South 5.8 mph - 0.03 in Rain Rain
4:53 AM 50.0 °F - 36.0 °F 59% 29.60 in 5.0 mi South 6.9 mph - 0.06 in Rain Light Rain
5:53 AM 52.0 °F - 36.0 °F 54% 29.60 in 2.5 mi SSE 8.1 mph - 0.03 in Rain Light Rain
6:04 AM 50.0 °F - 36.0 °F 59% 29.60 in 3.0 mi SSE 6.9 mph - 0.01 in Rain Light Rain
6:12 AM 37.4 °F 32.8 °F 35.6 °F 93% 29.60 in 3.0 mi South 5.8 mph - N/A Rain Light Rain
6:35 AM 37.4 °F 31.4 °F 35.6 °F 93% 29.61 in 2.5 mi SSE 8.1 mph - N/A   Overcast
6:37 AM 37.4 °F 32.1 °F 35.6 °F 93% 29.61 in 3.0 mi South 6.9 mph - N/A   Overcast
6:53 AM 37.4 °F 32.1 °F 37.4 °F 100% 29.62 in 3.0 mi South 6.9 mph - N/A Rain Light Rain
7:53 AM 37.4 °F 30.8 °F 37.4 °F 100% 29.64 in 3.0 mi SE 9.2 mph - N/A Rain Rain
8:53 AM 37.4 °F 31.4 °F 37.4 °F 100% 29.67 in 3.0 mi SSE 8.1 mph - N/A Rain Light Rain
9:53 AM 35.6 °F 28.0 °F 35.6 °F 100% 29.71 in 3.0 mi North 10.4 mph - N/A Rain Light Rain
10:53 AM 33.8 °F 23.9 °F 33.8 °F 100% 29.74 in 3.0 mi NNW 15.0 mph - N/A Rain Light Rain
11:53 AM 32.0 °F 21.2 °F 32.0 °F 100% 29.76 in 4.0 mi NW 16.1 mph 24.2 mph N/A   Overcast
12:53 PM 32.0 °F 22.1 °F 32.0 °F 100% 29.78 in 10.0 mi NW 13.8 mph - N/A   Overcast
1:53 PM 32.0 °F 22.1 °F 30.2 °F 93% 29.81 in 10.0 mi WNW 13.8 mph 24.2 mph N/A   Overcast
2:53 PM 32.0 °F 23.0 °F 32.0 °F 100% 29.84 in 10.0 mi NW 11.5 mph 20.7 mph N/A   Overcast
3:53 PM 30.2 °F 20.8 °F 28.4 °F 93% 29.84 in 10.0 mi NW 11.5 mph - N/A   Overcast
4:53 PM 39.9 °F 32.9 °F 28.0 °F 63% 29.89 in 10.0 mi WNW 11.5 mph 21.9 mph N/A   Overcast
5:53 PM 30.0 °F 20.0 °F 27.0 °F 88% 29.93 in 10.0 mi WNW 12.7 mph 19.6 mph N/A   Overcast
6:53 PM 30.2 °F 20.8 °F 26.6 °F 86% 29.96 in 10.0 mi NW 11.5 mph - N/A   Overcast
7:53 PM 28.4 °F 18.0 °F 24.8 °F 86% 29.99 in 10.0 mi WNW 12.7 mph 20.7 mph N/A   Overcast
8:53 PM 28.4 °F 18.0 °F 24.8 °F 86% 30.02 in 10.0 mi WNW 12.7 mph - N/A   Overcast
9:34 PM 37.0 °F 29.3 °F 23.0 °F 57% 30.04 in 10.0 mi NW 11.5 mph - N/A   Scattered Clouds
9:53 PM 37.0 °F 30.4 °F 21.9 °F 54% 30.06 in 10.0 mi WNW 9.2 mph - N/A   Partly Cloudy
10:48 PM 37.4 °F 30.3 °F 21.2 °F 52% 30.10 in 10.0 mi WNW 10.4 mph - N/A   Mostly Cloudy
10:53 PM 37.0 °F 29.8 °F 21.0 °F 52% 30.12 in 10.0 mi WNW 10.4 mph - N/A   Mostly Cloudy
11:05 PM 36.0 °F 28.0 °F 19.9 °F 52% 30.11 in 10.0 mi WNW 11.5 mph 19.6 mph N/A   Scattered Clouds
11:17 PM 37.9 °F 30.0 °F 21.0 °F 51% 30.11 in 10.0 mi NNW 12.7 mph - N/A   Mostly Cloudy
11:53 PM 39.0 °F 32.3 °F 21.0 °F 49% 30.16 in 10.0 mi NW 10.4 mph - N/A   Overcast